Weather History for KABI - September, 2013

Change the Weather History Date:

Thursday, September 12, 2013

  Actual Average Record
Temperature  
Mean Temperature 81 °F 77 °F  
Max Temperature 94 °F 88 °F 104 °F (1893)
Min Temperature 67 °F 66 °F 46 °F (1898)
Degree Days  
Heating Degree Days 0 0  
Month to date heating degree days 0 0  
Since 1 July heating degree days 0 0  
Cooling Degree Days 16 12  
Month to date cooling degree days 217 162  
Year to date cooling degree days 2371 2107  
Growing Degree Days 30 (Base 50)    
Moisture  
Dew Point 60 °F    
Average Humidity 55    
Maximum Humidity 76    
Minimum Humidity 33    
Precipitation  
Precipitation 0.00 in 0.08 in 2.57 in (1924)
Month to date precipitation T 0.96  
Year to date precipitation 16.33 17.92  
Sea Level Pressure  
Sea Level Pressure 30.00 in    
Wind  
Wind Speed 7 mph (SE)    
Max Wind Speed 18 mph    
Max Gust Speed 25 mph    
Visibility 10 miles    
Events      
T = Trace of Precipitation, MM = Missing Value Source: NWS Daily Summary

Daily Weather History Graph

Daily Weather History Graph

Search for Another Location

Airport or City:

Trip Planner

Search our weather history database for the weather conditions in past years. The results will help you decide how hot, cold, wet, or windy it might be!

Date:

Astronomy

Sep. 12, 2013 Rise Set
Actual Time 7:20 AM CDT 7:48 PM CDT
Civil Twilight 6:56 AM CDT 8:13 PM CDT
Nautical Twilight 6:27 AM CDT 8:41 PM CDT
Astronomical Twilight 5:57 AM CDT 9:11 PM CDT
Moon 2:28 PM CDT (9/12) 12:09 AM CDT (9/12)
Length of Visible Light 13h 16m
Length of Day
12h 27m
Waxing Crescent, 50% of the Moon is Illuminated
Sep 12
Waxing Crescent
Sep 12
First Quarter
Sep 19
Full
Sep 26
Last Quarter
Oct 4
New

Hourly Weather History & Observations

Time (CDT) Temp. Heat Index Dew Point Humidity Pressure Visibility Wind Dir Wind Speed Gust Speed Precip Events Conditions
12:52 AM 73.9 °F - 55.9 °F 53% 30.01 in 10.0 mi South 5.8 mph - N/A   Clear
1:52 AM 73.0 °F - 55.9 °F 55% 30.01 in 10.0 mi South 6.9 mph - N/A   Clear
2:52 AM 72.0 °F - 55.9 °F 57% 30.01 in 10.0 mi ESE 3.5 mph - N/A   Clear
3:52 AM 70.0 °F - 55.0 °F 59% 30.01 in 10.0 mi SSE 3.5 mph - N/A   Clear
4:52 AM 70.0 °F - 57.0 °F 63% 30.01 in 10.0 mi SSE 6.9 mph - N/A   Clear
5:52 AM 70.0 °F - 59.0 °F 68% 30.01 in 10.0 mi SSE 5.8 mph - N/A   Clear
6:52 AM 68.0 °F - 60.1 °F 76% 30.02 in 10.0 mi South 4.6 mph - N/A   Clear
7:52 AM 69.1 °F - 60.1 °F 73% 30.04 in 10.0 mi Calm Calm - N/A   Clear
8:52 AM 75.0 °F - 63.0 °F 66% 30.06 in 10.0 mi Calm Calm - N/A   Clear
9:52 AM 80.1 °F 82.1 °F 66.0 °F 62% 30.06 in 10.0 mi SSW 5.8 mph - N/A   Clear
10:52 AM 84.0 °F 85.4 °F 64.0 °F 51% 30.07 in 10.0 mi SE 3.5 mph - N/A   Clear
11:52 AM 88.0 °F 87.9 °F 61.0 °F 40% 30.06 in 10.0 mi South 10.4 mph 17.3 mph N/A   Partly Cloudy
12:52 PM 89.1 °F 88.8 °F 60.1 °F 38% 30.04 in 10.0 mi SE 13.8 mph 17.3 mph N/A   Partly Cloudy
1:52 PM 91.0 °F 90.5 °F 60.1 °F 35% 30.01 in 10.0 mi SE 15.0 mph 21.9 mph N/A   Scattered Clouds
2:52 PM 91.9 °F 91.2 °F 59.0 °F 33% 29.97 in 10.0 mi South 6.9 mph 21.9 mph N/A   Scattered Clouds
3:52 PM 91.0 °F 90.2 °F 59.0 °F 34% 29.94 in 10.0 mi South 9.2 mph - N/A   Partly Cloudy
4:52 PM 93.0 °F 92.7 °F 60.1 °F 33% 29.92 in 10.0 mi South 11.5 mph 25.3 mph N/A   Partly Cloudy
5:52 PM 91.9 °F 91.2 °F 59.0 °F 33% 29.92 in 10.0 mi ESE 12.7 mph - N/A   Clear
6:52 PM 87.1 °F 86.7 °F 60.1 °F 40% 29.94 in 10.0 mi ENE 12.7 mph 19.6 mph N/A   Scattered Clouds
7:52 PM 86.0 °F 85.7 °F 60.1 °F 41% 29.94 in 10.0 mi East 10.4 mph - N/A   Partly Cloudy
8:52 PM 84.0 °F 84.4 °F 61.0 °F 46% 29.95 in 10.0 mi East 4.6 mph - N/A   Clear
9:52 PM 81.0 °F 81.7 °F 61.0 °F 50% 29.96 in 10.0 mi East 6.9 mph - N/A   Clear
10:52 PM 80.1 °F 81.1 °F 61.0 °F 52% 29.96 in 10.0 mi East 6.9 mph - N/A   Clear
11:52 PM 80.1 °F 81.2 °F 62.1 °F 54% 29.96 in 10.0 mi ESE 6.9 mph - N/A   Clear